TimeCDT,TemperatureF,Dew PointF,Humidity,Sea Level PressureIn,VisibilityMPH,Wind Direction,Wind SpeedMPH,Gust SpeedMPH,PrecipitationIn,Events,Conditions,WindDirDegrees,DateUTC
12:52 AM,80.1,75.9,87,29.93,10.0,South,9.2,-,N/A,,Clear,170,2013-06-14 05:52:00
1:40 AM,80.6,77.0,89,29.92,10.0,SSE,6.9,-,N/A,,Mostly Cloudy,150,2013-06-14 06:40:00
1:52 AM,80.1,77.0,90,29.92,10.0,SSE,6.9,-,N/A,,Mostly Cloudy,150,2013-06-14 06:52:00
2:52 AM,80.1,77.0,90,29.89,10.0,SE,9.2,-,N/A,,Scattered Clouds,140,2013-06-14 07:52:00
3:30 AM,80.6,77.0,89,29.88,10.0,SE,9.2,-,N/A,,Mostly Cloudy,140,2013-06-14 08:30:00
3:52 AM,80.1,77.0,90,29.88,10.0,SE,9.2,-,N/A,,Mostly Cloudy,140,2013-06-14 08:52:00
4:52 AM,80.1,77.0,90,29.88,10.0,SE,10.4,-,N/A,,Mostly Cloudy,140,2013-06-14 09:52:00
5:00 AM,80.6,77.0,89,29.88,10.0,SE,10.4,-,N/A,,Mostly Cloudy,130,2013-06-14 10:00:00
5:49 AM,80.6,77.0,89,29.89,9.0,SE,9.2,-,N/A,,Scattered Clouds,140,2013-06-14 10:49:00
5:52 AM,80.1,77.0,90,29.89,9.0,SE,8.1,-,N/A,,Scattered Clouds,130,2013-06-14 10:52:00
6:19 AM,80.6,78.8,94,29.90,8.0,SE,6.9,-,N/A,,Mostly Cloudy,140,2013-06-14 11:19:00
6:52 AM,80.1,78.1,94,29.91,6.0,SE,8.1,-,N/A,,Mostly Cloudy,140,2013-06-14 11:52:00
7:52 AM,82.0,78.1,88,29.92,6.0,SE,11.5,-,N/A,,Partly Cloudy,130,2013-06-14 12:52:00
8:12 AM,82.4,78.8,89,29.92,7.0,SE,9.2,-,N/A,,Partly Cloudy,130,2013-06-14 13:12:00
8:30 AM,82.4,78.8,89,29.93,7.0,SE,10.4,-,N/A,,Mostly Cloudy,140,2013-06-14 13:30:00
8:48 AM,84.2,78.8,84,29.94,8.0,SE,12.7,-,N/A,,Mostly Cloudy,130,2013-06-14 13:48:00
8:49 AM,84.0,78.1,82,29.94,8.0,SE,12.7,-,N/A,,Mostly Cloudy,130,2013-06-14 13:49:00
8:58 AM,84.2,78.8,84,29.94,8.0,SE,11.5,-,N/A,,Mostly Cloudy,140,2013-06-14 13:58:00
9:52 AM,87.1,75.9,69,29.94,10.0,SSE,16.1,21.9,N/A,,Mostly Cloudy,150,2013-06-14 14:52:00
10:52 AM,88.0,75.0,65,29.93,10.0,SSE,16.1,-,N/A,,Mostly Cloudy,150,2013-06-14 15:52:00
11:06 AM,89.6,75.2,62,29.93,10.0,SE,15.0,-,N/A,,Scattered Clouds,140,2013-06-14 16:06:00
11:52 AM,91.0,73.9,57,29.92,10.0,SSE,16.1,26.5,N/A,,Scattered Clouds,160,2013-06-14 16:52:00
12:52 PM,93.0,73.0,52,29.91,10.0,SSE,16.1,24.2,N/A,,Clear,160,2013-06-14 17:52:00
1:52 PM,91.0,73.0,55,29.89,10.0,South,18.4,-,N/A,,Partly Cloudy,170,2013-06-14 18:52:00
2:52 PM,90.0,69.1,50,29.87,10.0,SSE,18.4,-,N/A,,Clear,160,2013-06-14 19:52:00
3:52 PM,89.1,70.0,53,29.86,10.0,SSE,17.3,-,N/A,,Clear,150,2013-06-14 20:52:00
4:52 PM,89.1,71.1,55,29.86,10.0,SSE,12.7,-,N/A,,Clear,160,2013-06-14 21:52:00
5:52 PM,90.0,70.0,52,29.85,10.0,SE,13.8,-,N/A,,Clear,140,2013-06-14 22:52:00
6:52 PM,87.1,70.0,57,29.85,10.0,SE,12.7,-,N/A,,Clear,140,2013-06-14 23:52:00
7:52 PM,84.9,73.0,67,29.86,10.0,SE,16.1,-,N/A,,Clear,140,2013-06-15 00:52:00
8:52 PM,82.0,73.9,76,29.87,10.0,SE,11.5,-,N/A,,Clear,140,2013-06-15 01:52:00
9:52 PM,81.0,75.0,82,29.90,10.0,SE,8.1,-,N/A,,Clear,140,2013-06-15 02:52:00
10:52 PM,79.0,75.0,88,29.91,10.0,SE,8.1,-,N/A,,Clear,140,2013-06-15 03:52:00
11:52 PM,78.1,75.0,90,29.93,10.0,SSE,3.5,-,N/A,,Clear,150,2013-06-15 04:52:00